When you browse on this site, cookies collect data to enhance your experience and personalize the content and advertising you see.
Visit our Privacy Policy to learn more. By continuing to use the site, you agree to this use of cookies and data.
  • In Hungary
  • List of Countries
  • For 7 days
  • Water Temperature
  • Satellite Maps
  • Weather Map
  • News
  • Weather Widgets
  • user-avatar
    Login

    Hourly Weather Karimunjawa

    Today, 15 December, Saturday

    Time Temperature Precipitation Wind Pressure Humidity
    00:00 +29°C° 0.3 mm 2 mps 754 mmHg 84%
    01:00 +28°C° 0 mm 1 mps 755 mmHg 86%
    02:00 +28°C° 0.3 mm 1 mps 754 mmHg 86%
    03:00 +28°C° 0.3 mm 1 mps 754 mmHg 86%
    04:00 +28°C° 0.3 mm 1 mps 754 mmHg 85%
    05:00 +28°C° 0.1 mm 1 mps 754 mmHg 84%
    06:00 +29°C° 0.1 mm 1 mps 754 mmHg 82%
    07:00 +29°C° 0 mm 1 mps 755 mmHg 79%
    08:00 +30°C° 0.2 mm 1 mps 755 mmHg 73%
    09:00 +32°C° 0.2 mm 1 mps 755 mmHg 67%
    10:00 +33°C° 0.2 mm 1 mps 755 mmHg 62%
    11:00 +35°C° 0.8 mm 2 mps 755 mmHg 60%
    12:00 +35°C° 0.8 mm 2 mps 754 mmHg 59%
    13:00 +34°C° 0 mm 2 mps 754 mmHg 61%
    14:00 +34°C° 1.1 mm 2 mps 754 mmHg 63%
    15:00 +34°C° 1.1 mm 2 mps 754 mmHg 64%
    16:00 +34°C° 1.1 mm 2 mps 753 mmHg 66%
    17:00 +32°C° 2.1 mm 2 mps 754 mmHg 71%
    18:00 +31°C° 2.1 mm 1 mps 754 mmHg 76%
    19:00 +30°C° 0 mm 1 mps 755 mmHg 79%
    20:00 +29°C° 0.4 mm 1 mps 755 mmHg 80%
    21:00 +29°C° 0.4 mm 1 mps 755 mmHg 80%
    22:00 +29°C° 0.4 mm 2 mps 755 mmHg 81%
    23:00 +29°C° 0.1 mm 1 mps 755 mmHg 81%

    Tomorrow, 16 December, Sunday

    Time Temperature Precipitation Wind Pressure Humidity
    00:00 +29°C° 0.1 mm 1 mps 755 mmHg 81%
    01:00 +28°C° 0.1 mm 1 mps 755 mmHg 80%
    02:00 +28°C° 0 mm 1 mps 755 mmHg 80%
    03:00 +28°C° 0 mm 1 mps 755 mmHg 80%
    04:00 +28°C° 0 mm 1 mps 754 mmHg 79%
    05:00 +29°C° 0 mm 1 mps 755 mmHg 78%
    06:00 +29°C° 0 mm 1 mps 755 mmHg 76%
    07:00 +29°C° 0 mm 1 mps 755 mmHg 74%
    08:00 +31°C° 0 mm 1 mps 755 mmHg 67%
    09:00 +33°C° 0 mm 1 mps 755 mmHg 59%
    10:00 +35°C° 0 mm 1 mps 755 mmHg 52%
    11:00 +36°C° 0.5 mm 2 mps 755 mmHg 51%
    12:00 +37°C° 0.5 mm 2 mps 755 mmHg 50%
    13:00 +37°C° 0.5 mm 2 mps 754 mmHg 50%
    14:00 +36°C° 1 mm 2 mps 754 mmHg 56%
    15:00 +34°C° 1 mm 2 mps 754 mmHg 62%
    16:00 +32°C° 1 mm 2 mps 753 mmHg 68%
    17:00 +31°C° 1.2 mm 2 mps 754 mmHg 72%
    18:00 +30°C° 1.2 mm 1 mps 754 mmHg 76%
    19:00 +30°C° 1.2 mm 1 mps 754 mmHg 80%
    20:00 +29°C° 0.2 mm 1 mps 755 mmHg 80%
    21:00 +29°C° 0.2 mm 1 mps 755 mmHg 81%
    22:00 +29°C° 0.2 mm 1 mps 755 mmHg 82%
    23:00 +29°C° 0 mm 1 mps 755 mmHg 82%

    Day after tomorrow, 17 December, Monday

    Time Temperature Precipitation Wind Pressure Humidity
    00:00 +29°C° 0 mm 2 mps 755 mmHg 83%
    01:00 +29°C° 0 mm 2 mps 755 mmHg 83%
    02:00 +28°C° 0.1 mm 2 mps 754 mmHg 83%
    03:00 +28°C° 0.1 mm 2 mps 754 mmHg 83%
    04:00 +28°C° 0.1 mm 2 mps 754 mmHg 84%
    05:00 +28°C° 0 mm 2 mps 754 mmHg 81%
    06:00 +29°C° 0 mm 2 mps 755 mmHg 79%
    07:00 +29°C° 0 mm 2 mps 755 mmHg 77%
    08:00 +31°C° 0 mm 2 mps 755 mmHg 71%
    09:00 +32°C° 0 mm 2 mps 756 mmHg 65%
    10:00 +35°C° 0 mm 2 mps 756 mmHg 58%
    11:00 +35°C° 0.3 mm 2 mps 755 mmHg 57%
    12:00 +36°C° 0.3 mm 2 mps 755 mmHg 56%
    13:00 +36°C° 0.3 mm 2 mps 754 mmHg 54%
    14:00 +35°C° 0.7 mm 2 mps 754 mmHg 57%
    15:00 +35°C° 0.7 mm 2 mps 754 mmHg 60%
    16:00 +34°C° 0.7 mm 2 mps 753 mmHg 63%
    17:00 +32°C° 0.9 mm 2 mps 754 mmHg 69%
    18:00 +30°C° 0.9 mm 2 mps 754 mmHg 75%
    19:00 +29°C° 0.9 mm 2 mps 755 mmHg 81%
    20:00 +29°C° 0 mm 2 mps 755 mmHg 82%
    21:00 +29°C° 0 mm 2 mps 755 mmHg 83%
    22:00 +28°C° 0 mm 2 mps 756 mmHg 84%
    23:00 +28°C° 0 mm 2 mps 755 mmHg 84%

    18 December, Tuesday

    Time Temperature Precipitation Wind Pressure Humidity
    00:00 +28°C° 0 mm 2 mps 755 mmHg 84%
    01:00 +28°C° 0 mm 2 mps 754 mmHg 84%
    02:00 +27°C° 0 mm 2 mps 754 mmHg 84%
    03:00 +27°C° 0 mm 2 mps 754 mmHg 84%
    04:00 +27°C° 0 mm 2 mps 754 mmHg 83%
    05:00 +28°C° 0 mm 2 mps 754 mmHg 81%
    06:00 +28°C° 0 mm 2 mps 755 mmHg 79%
    07:00 +28°C° 0 mm 2 mps 755 mmHg 77%
    08:00 +30°C° 0 mm 1 mps 755 mmHg 68%
    09:00 +32°C° 0 mm 1 mps 755 mmHg 59%
    10:00 +34°C° 0 mm 1 mps 755 mmHg 50%
    11:00 +35°C° 0 mm 1 mps 755 mmHg 48%
    12:00 +37°C° 0 mm 2 mps 754 mmHg 45%
    13:00 +38°C° 0 mm 2 mps 754 mmHg 42%
    14:00 +36°C° 0 mm 2 mps 753 mmHg 47%
    15:00 +35°C° 0 mm 2 mps 753 mmHg 52%
    16:00 +34°C° 0 mm 2 mps 753 mmHg 56%
    17:00 +32°C° 0.3 mm 2 mps 753 mmHg 63%
    18:00 +31°C° 0.3 mm 2 mps 754 mmHg 69%
    19:00 +30°C° 0.3 mm 1 mps 754 mmHg 75%
    20:00 +30°C° 0.3 mm 1 mps 755 mmHg 77%
    21:00 +29°C° 0.3 mm 1 mps 755 mmHg 79%
    22:00 +29°C° 0.3 mm 1 mps 755 mmHg 81%
    23:00 +29°C° 0 mm 1 mps 755 mmHg 82%

    19 December, Wednesday

    Time Temperature Precipitation Wind Pressure Humidity
    00:00 +28°C° 0 mm 1 mps 754 mmHg 83%
    01:00 +28°C° 0 mm 1 mps 754 mmHg 83%
    02:00 +28°C° 0 mm 1 mps 754 mmHg 84%
    03:00 +28°C° 0 mm 1 mps 754 mmHg 84%
    04:00 +28°C° 0 mm 1 mps 753 mmHg 84%
    05:00 +28°C° 0.1 mm 1 mps 754 mmHg 81%
    06:00 +29°C° 0.1 mm 1 mps 754 mmHg 78%
    07:00 +29°C° 0.1 mm 1 mps 755 mmHg 75%
    08:00 +31°C° 0 mm 1 mps 755 mmHg 69%
    09:00 +32°C° 0 mm 1 mps 755 mmHg 62%
    10:00 +35°C° 0 mm 2 mps 755 mmHg 56%
    11:00 +35°C° 0.6 mm 2 mps 755 mmHg 57%
    12:00 +35°C° 0.6 mm 2 mps 754 mmHg 57%
    13:00 +35°C° 0.6 mm 3 mps 753 mmHg 58%
    14:00 +34°C° 1.4 mm 2 mps 753 mmHg 62%
    15:00 +34°C° 1.4 mm 2 mps 753 mmHg 65%
    16:00 +32°C° 1.4 mm 2 mps 752 mmHg 68%
    17:00 +31°C° 1.3 mm 2 mps 753 mmHg 73%
    18:00 +30°C° 1.3 mm 1 mps 754 mmHg 78%
    19:00 +30°C° 1.3 mm 1 mps 754 mmHg 82%
    20:00 +29°C° 1 mm 1 mps 755 mmHg 83%
    21:00 +27°C° 1 mm 0 mps 755 mmHg 84%
    22:00 +27°C° 1 mm 0 mps 755 mmHg 85%
    23:00 +27°C° 0.7 mm 0 mps 755 mmHg 85%

    20 December, Thursday

    Time Temperature Precipitation Wind Pressure Humidity
    00:00 +26°C° 0.7 mm 0 mps 755 mmHg 86%
    01:00 +26°C° 0.7 mm 0 mps 754 mmHg 86%
    02:00 +26°C° 0.2 mm 0 mps 754 mmHg 86%
    03:00 +26°C° 0.2 mm 0 mps 754 mmHg 86%
    04:00 +28°C° 0.2 mm 1 mps 754 mmHg 86%
    05:00 +28°C° 0 mm 1 mps 754 mmHg 83%
    06:00 +29°C° 0 mm 1 mps 755 mmHg 81%
    07:00 +29°C° 0 mm 1 mps 755 mmHg 78%
    08:00 +31°C° 0 mm 1 mps 755 mmHg 71%
    09:00 +32°C° 0 mm 1 mps 755 mmHg 64%
    10:00 +34°C° 0 mm 1 mps 755 mmHg 58%
    11:00 +35°C° 0.5 mm 2 mps 754 mmHg 58%
    12:00 +35°C° 0.5 mm 2 mps 754 mmHg 59%
    13:00 +35°C° 0.5 mm 3 mps 753 mmHg 60%
    14:00 +34°C° 1.2 mm 3 mps 752 mmHg 63%
    15:00 +32°C° 1.2 mm 2 mps 752 mmHg 67%
    16:00 +32°C° 1.2 mm 2 mps 752 mmHg 70%
    17:00 +31°C° 1.9 mm 2 mps 752 mmHg 75%
    18:00 +30°C° 1.9 mm 2 mps 753 mmHg 80%
    19:00 +29°C° 1.9 mm 1 mps 753 mmHg 85%
    20:00 +29°C° 0.8 mm 1 mps 754 mmHg 85%
    21:00 +29°C° 0.8 mm 1 mps 754 mmHg 85%
    22:00 +29°C° 0.8 mm 1 mps 754 mmHg 86%
    23:00 +28°C° 0.2 mm 1 mps 754 mmHg 86%
    Show more